Location: S�tio Afonso Gruber
(26.1760°S, 49.5250°W)
Time: 00:39:06
(UTC+00:00)

Intelsat 5-3 Rocket - Pass Details

Date: 07 October 2020
Orbit: 281 x 6111 km, 23.6° (Epoch: 22 October)

Event Time Altitude Azimuth Distance (km) Brightness Sun altitude
Exits shadow 07:56:09 12° 268° (W) 7,609 7.4 -12.9°
Maximum altitude 08:26:37 46° 330° (NNW) 7,093 7.6 -6.2°
Drops below altitude 10° 09:01:18 10° 34° (NE) 8,121 8.7 1.5°
Sets 09:07:18 0° 41° (NE) 8,484 8.9 2.9°
